STARLINK-37223, 68387

Orbit data source: Space-Track

STARLINK-37223, 68387 is a payload satellite owned by SpaceX/Seattle (US) in SSO that was launched on Thu, 26 Mar 2026 UTC via an FALCON 9 launch vehicle from the Air Force Western Test Range (AFWTR). Payload-class satellites include a variety of spacecraft equipped with specific instruments for various scientific and technological missions. These include communications satellites like Starlink; space stations such as the ISS; scientific satellites like the Hubble; Earth observation satellites from companies like Planet Labs, Umbra, and HawkEye 360; GPS; miniature CubeSats for education and research; and military/defense satellites.

Loading next visibility...
Identifier
68387, 2026-063H
Orbit
SSO
Country
Flag of USUS
Related business
Manufacturer
SpaceX/Seattle
Mission
Operational spacecraft
Bus & Motor
STARLINK V2MO, Unknown motor
Mass
575 kg wet, ~530 kg dry
Launch date (UTC)
2026-03-26 (3 months ago)
Launch vehicle
FALCON 9
Launch site
Air Force Western Test Range (AFWTR)
Object type
Payload
Rocket body
Debris
Shape & HBR
Unknown shape, 17.7 m
Radar Cross Section
Large (>1 m²)

Expand to show TLE details & history
Last TLE update: 6 hours ago

TLE from 6 hours ago
0 STARLINK-37223
1 68387U 26063H   26165.84495418  .00020544  00000-0  63692-3 0  9996
2 68387  97.2856 308.0940 0000275 105.6020 254.5253 15.33446088 12789
Epoch: 2026-06-14T20:16Z
TLE epoch observation values (Epoch: 2026-06-14T20:16:44.041Z)
Latitude
-0.00001°
Longitude
100.77064°
Altitude
468.702 km
Speed
7.632 km/s
True Right ascension
20h 32m 22s
True Declination
0° 00' 00"
Sunlit
Object was in full shadow at epoch
Visualization orbit readout
Latitude
Unknown
Longitude
Unknown
Altitude
Unknown
Speed
Unknown
Apparent Right ascension
Unknown
Apparent Declination
Unknown
Sunlit
N/A
Visualization observer readout
Local Sidereal Time
13:01:22
Azimuth
Unknown
Elevation
Unknown
Doppler factor
Unknown
Orbital elements
Apogee altitude
462.671 km
Perigee altitude
462.295 km
Semi-major axis
6,840.62 km
Eccentricity
0.00003
Inclination
97.2856°
RAAN
308.094°
Arg. of periapsis
105.602°
True anomaly
254.52226°
Mean anomaly
254.5253°
Eccentric anomaly
254.52378°
Mean motion
3.83619 °/min
Orbital period
93.84 mins
BSTAR
0.00063692
Loading maneuver chart data...
Computing Atmospheric mass density...
Loading historical data...
Loading historical data...
Loading historical data...
Loading historical data...
Loading historical data...
Loading historical data...
Loading historical data...

Documentation

Showing up to 5 results
|